| time (UTC) | temp C | wind direction | speed KPH | gust KPH | rain 1hr cm | rain 24hr cm | rain mn cm | humidity % | barometer mb |
| 20260506134552 | 10 | 252 | 0.0 | 0.0 | 0.00 | 0.00 | 0.00 | 95 | 975.9 |
| 20260506133055 | 10 | 252 | 0.0 | 0.0 | 0.00 | 0.00 | 0.00 | 95 | 975.9 |
| 20260506131550 | 10 | 252 | 0.0 | 0.0 | 0.00 | 0.00 | 0.00 | 95 | 975.7 |
| 20260506130053 | 10 | 252 | 0.0 | 0.0 | 0.00 | 0.00 | 0.00 | 95 | 975.7 |
| 20260506124548 | 10 | 252 | 0.0 | 0.0 | 0.00 | 0.00 | 0.00 | 96 | 975.7 |
| 20260506123047 | 10 | 252 | 0.0 | 0.0 | 0.00 | 0.00 | 0.00 | 96 | 975.6 |
| 20260506121546 | 10 | 252 | 0.0 | 0.0 | 0.00 | 0.00 | 0.00 | 96 | 975.5 |
| 20260506120054 | 10 | 252 | 0.0 | 0.0 | 0.00 | 0.00 | 0.00 | 96 | 975.4 |
| 20260506114550 | 10 | 252 | 0.0 | 0.0 | 0.00 | 0.00 | 0.00 | 96 | 975.4 |
| 20260506113043 | 10 | 252 | 0.0 | 0.0 | 0.00 | 0.00 | 0.00 | 96 | 975.3 |
| 20260506111544 | 10 | 252 | 0.0 | 0.0 | 0.00 | 0.00 | 0.00 | 96 | 975.2 |
| 20260506110041 | 10 | 252 | 0.0 | 0.0 | 0.00 | 0.00 | 0.00 | 96 | 975.1 |
| 20260506104542 | 10 | 252 | 0.0 | 0.0 | 0.00 | 0.00 | 0.00 | 95 | 975.0 |
| 20260506103037 | 10 | 324 | 0.0 | 0.0 | 0.00 | 0.00 | 0.00 | 95 | 974.9 |
| 20260506101537 | 10 | 324 | 0.0 | 0.0 | 0.00 | 0.00 | 0.00 | 95 | 974.8 |
| 20260506100039 | 10 | 324 | 0.0 | 0.0 | 0.00 | 0.00 | 0.00 | 95 | 974.7 |
| 20260506094537 | 10 | 324 | 0.0 | 0.0 | 0.00 | 0.00 | 0.00 | 95 | 974.7 |
| 20260506093055 | 10 | 324 | 0.0 | 0.0 | 0.00 | 0.00 | 0.00 | 95 | 974.7 |
| 20260506091534 | 10 | 324 | 0.0 | 0.0 | 0.00 | 0.00 | 0.00 | 95 | 974.8 |
| 20260506090034 | 10 | 324 | 0.0 | 0.0 | 0.00 | 0.00 | 0.00 | 95 | 974.8 |
| 20260506084529 | 10 | 324 | 0.0 | 0.0 | 0.00 | 0.00 | 0.00 | 95 | 974.9 |
| 20260506083027 | 10 | 324 | 0.0 | 0.0 | 0.00 | 0.00 | 0.00 | 95 | 974.9 |
| 20260506081527 | 10 | 324 | 0.0 | 0.0 | 0.00 | 0.00 | 0.00 | 94 | 974.9 |
| 20260506073022 | 10 | 324 | 0.0 | 0.0 | 0.00 | 0.13 | 0.00 | 93 | 974.6 |
| 20260506071522 | 10 | 324 | 0.0 | 0.0 | 0.00 | 0.13 | 0.00 | 94 | 974.4 |
| 20260506061615 | 10 | 255 | 0.0 | 0.0 | 0.00 | 0.33 | 0.13 | 94 | 974.0 |
| 20260506044505 | 11 | 217 | 0.0 | 0.0 | 0.00 | 0.58 | 0.13 | 92 | 973.5 |
| 20260506043004 | 11 | 217 | 0.0 | 0.0 | 0.00 | 0.58 | 0.13 | 92 | 973.3 |
| 20260506041502 | 11 | 217 | 0.0 | 0.0 | 0.00 | 0.58 | 0.13 | 91 | 973.1 |
| 20260506034606 | 11 | 279 | 0.0 | 0.0 | 0.00 | 0.71 | 0.13 | 92 | 972.9 |
| 20260506033058 | 11 | 279 | 0.0 | 0.0 | 0.00 | 0.71 | 0.13 | 91 | 972.7 |
| 20260506031600 | 11 | 352 | 0.0 | 0.0 | 0.00 | 0.71 | 0.13 | 90 | 972.5 |
| 20260506030054 | 11 | 327 | 0.0 | 4.8 | 0.00 | 0.71 | 0.13 | 89 | 972.3 |
| 20260506024555 | 11 | 345 | 0.0 | 1.6 | 0.00 | 0.97 | 0.13 | 89 | 972.1 |
| 20260506023056 | 11 | 255 | 0.0 | 9.7 | 0.00 | 0.97 | 0.13 | 89 | 972.1 |
| 20260506021551 | 12 | 314 | 0.0 | 1.6 | 0.00 | 0.97 | 0.13 | 88 | 971.9 |
| 20260506020117 | 12 | 311 | 0.0 | 3.2 | 0.00 | 0.97 | 0.13 | 88 | 971.8 |
| 20260506014551 | 12 | 343 | 1.6 | 4.8 | 0.00 | 1.14 | 0.13 | 87 | 971.6 |
| 20260506013050 | 12 | 299 | 0.0 | 3.2 | 0.00 | 1.14 | 0.13 | 87 | 971.6 |
| 20260506011550 | 13 | 20 | 0.0 | 9.7 | 0.00 | 1.14 | 0.13 | 86 | 971.4 |
| 20260506010049 | 13 | 3 | 3.2 | 8.0 | 0.00 | 1.14 | 0.13 | 85 | 971.4 |
| 20260506004547 | 13 | 13 | 1.6 | 9.7 | 0.00 | 1.35 | 0.13 | 86 | 971.3 |
| 20260506003048 | 13 | 17 | 0.0 | 3.2 | 0.00 | 1.35 | 0.13 | 86 | 971.3 |
| 20260506001554 | 13 | 23 | 0.0 | 6.4 | 0.00 | 1.35 | 0.13 | 86 | 971.2 |
| 20260506000059 | 13 | 19 | 1.6 | 8.0 | 0.00 | 1.35 | 0.13 | 86 | 971.1 |
| 20260505234545 | 14 | 1 | 3.2 | 9.7 | 0.00 | 1.45 | 0.13 | 86 | 971.1 |
| 20260505233050 | 14 | 39 | 0.0 | 6.4 | 0.00 | 1.45 | 0.13 | 84 | 971.1 |
| 20260505231552 | 15 | 45 | 1.6 | 9.7 | 0.00 | 1.45 | 0.13 | 84 | 971.1 |
| 20260505230049 | 15 | 292 | 3.2 | 9.7 | 0.00 | 1.45 | 0.13 | 83 | 971.2 |
| 20260505224548 | 15 | 16 | 3.2 | 11.3 | 0.00 | 1.60 | 0.13 | 84 | 971.1 |
| 20260505223042 | 15 | 349 | 1.6 | 8.0 | 0.00 | 1.60 | 0.13 | 84 | 971.2 |
| 20260505221549 | 15 | 115 | 3.2 | 9.7 | 0.00 | 1.60 | 0.13 | 85 | 971.4 |
| 20260505220048 | 15 | 342 | 4.8 | 9.7 | 0.00 | 1.60 | 0.13 | 84 | 971.4 |
| 20260505214545 | 15 | 152 | 0.0 | 6.4 | 0.00 | 1.60 | 0.13 | 84 | 971.5 |
| 20260505213037 | 15 | 317 | 0.0 | 8.0 | 0.00 | 1.60 | 0.13 | 86 | 971.6 |
| 20260505211604 | 14 | 21 | 1.6 | 8.0 | 0.00 | 1.60 | 0.13 | 85 | 971.7 |
| 20260505210041 | 15 | 251 | 0.0 | 1.6 | 0.00 | 1.60 | 0.13 | 84 | 971.8 |
| 20260505204541 | 15 | 319 | 0.0 | 1.6 | 0.00 | 1.60 | 0.13 | 85 | 971.8 |
| 20260505203031 | 14 | 9 | 0.0 | 3.2 | 0.00 | 1.60 | 0.13 | 86 | 971.7 |
| 20260505201533 | 13 | 34 | 0.0 | 4.8 | 0.00 | 1.60 | 0.13 | 86 | 971.9 |
| 20260505200028 | 13 | 7 | 0.0 | 4.8 | 0.00 | 1.60 | 0.13 | 87 | 971.9 |
| 20260505194523 | 13 | 103 | 0.0 | 0.0 | 0.00 | 1.60 | 0.13 | 89 | 971.9 |
| 20260505193021 | 12 | 346 | 0.0 | 3.2 | 0.00 | 1.60 | 0.13 | 89 | 972.0 |
| 20260505191520 | 12 | 243 | 0.0 | 3.2 | 0.00 | 1.60 | 0.13 | 89 | 971.9 |
| 20260505190023 | 12 | 278 | 0.0 | 6.4 | 0.00 | 1.60 | 0.13 | 90 | 971.9 |
| 20260505184517 | 12 | 281 | 0.0 | 3.2 | 0.00 | 1.60 | 0.13 | 91 | 971.8 |
| 20260505183016 | 12 | 261 | 0.0 | 3.2 | 0.00 | 1.60 | 0.13 | 91 | 971.7 |
| 20260505181514 | 12 | 346 | 0.0 | 4.8 | 0.00 | 1.60 | 0.13 | 91 | 971.8 |
| 20260505180013 | 12 | 338 | 0.0 | 3.2 | 0.00 | 1.60 | 0.13 | 91 | 971.7 |
| 20260505174509 | 12 | 248 | 0.0 | 1.6 | 0.00 | 1.60 | 0.13 | 91 | 971.6 |
| 20260505173006 | 11 | 320 | 0.0 | 3.2 | 0.00 | 1.60 | 0.13 | 93 | 971.4 |
| 20260505171507 | 11 | 341 | 0.0 | 1.6 | 0.00 | 1.60 | 0.13 | 94 | 971.2 |
| 20260505170003 | 11 | 283 | 0.0 | 3.2 | 0.00 | 1.60 | 0.13 | 94 | 971.3 |
| 20260505164600 | 11 | 125 | 0.0 | 0.0 | 0.00 | 1.60 | 0.13 | 95 | 971.5 |
| 20260505163058 | 10 | 243 | 0.0 | 0.0 | 0.00 | 1.60 | 0.13 | 96 | 971.4 |
| 20260505161556 | 10 | 78 | 0.0 | 0.0 | 0.00 | 1.60 | 0.13 | 96 | 971.2 |
| 20260505153049 | 10 | 20 | 0.0 | 1.6 | 0.00 | 1.60 | 0.13 | 98 | 970.9 |
| 20260505151548 | 10 | 349 | 0.0 | 1.6 | 0.00 | 1.60 | 0.13 | 98 | 970.8 |